sat.trackr.live / text

‹ back to catalog

STARLINK-37348

NORAD 68737 · 2026-082K

PAYLOAD ACTIVE UNKNOWN

§ Identity

Operator
Country
US
Launch date
2026-04-15
Launch site
AFWTR
Launch vehicle
Mass (kg)
RCS (m²)

Purposes: comms

External: N2YO · Heavens-Above · Gunter

§ Orbital elements

Epoch: 2026-09-20T00:58:13.224576Z

Period
93.90 min
Inclination
97.2878°
Eccentricity
0.0000252
Mean motion
15.33467598 rev/d
Perigee alt
465.3 km
Apogee alt
465.6 km
Semi-major
6,843.6 km
B*
6.5192e-4
RAAN
125.1762°
Arg perigee
75.8760°
Mean anomaly
284.2511°
Rev number
2,423

§ Raw data

STARLINK-373481 68737U 26082K   26263.04043084  .00021045  00000+0  65192-3 0  99982 68737  97.2878 125.1762 0000252  75.8760 284.2511 15.33467598 24235

JSON: /api/v1/satellites/68737 · /tle

For live sub-satellite position, see the globe view (requires WebGL).

§ Visibility from observer

Set your observer location to see the next 7 days of passes ≥ 10°. The values pass through the URL so the page stays shareable.

No JS? Fill the form by hand. The geolocation button needs JavaScript.